STARLINK-3124 (49456 NORAD) Tracking and Keplerian Element Data

This shows tracking and keplerian element data for the satellite.

Feedback or suggestion? Click here.




ElementValue
Catalog49456
NameSTARLINK-3124
Epoch Orbit370
Epoch Day15.91668981
Epoch Year2022
RAAN180.2309
Inclination53.2173
Eccentricity0.0001634
Argument of Perigee41.7088
Mean Anonmoly113.1875
Mean Motion15.54913987
Decay Rate-0.00648962
L11 49456U 21104BA 22015.91668981 -.00648962 00000+0 -10336-1 0 9994
L22 49456 53.2173 180.2309 0001634 41.7088 113.1875 15.54913987 3704

Live tracking and technical data element details for STARLINK-3124 (NORAD 49456). STARLINK-3124 can be tracked NOW for your location showing map with azimuth and elevation plus other details from your city location.

Track the satellite on the map from your city or location and see movement details for azimuth, elevation, latitude, longitude, range, height, and movement on the map or in text.







IsCatalogInMostPopularTable: catalog: 49456, numindb: 6
Update: records affected: 1



GetName: 49456 STARLINK-3124

Hit Count: updated at: Thu, 20 Jan 2022 16:51:26 GMT